This is the latest recevied weather packets stored in our database for station/object KQ7A. If no packets are shown the sender has not sent any weather packets the latest 10 day(s).
| Time | Temp. | Humidity | Pressure | Rain* | Wind** | Luminosity | Snow |
|---|---|---|---|---|---|---|---|
| 1788406515 | 15.56° C | 37% | 1018.2 hPa | 0 mm | - | 0 W/m² | - |
| 1788406211 | 15.56° C | 37% | 1017.9 hPa | 0 mm | - | 0 W/m² | - |
| 1788405906 | 15.56° C | 37% | 1018.1 hPa | 0 mm | - | 0 W/m² | - |
| 1788405600 | 15° C | 39% | 1017.9 hPa | 0 mm | - | 0 W/m² | - |
| 1788405295 | 15.56° C | 39% | 1018.1 hPa | 0 mm | - | 0 W/m² | - |
| 1788404990 | 16.11° C | 36% | 1017.8 hPa | 0 mm | - | 0 W/m² | - |
| 1788404686 | 16.11° C | 36% | 1017.7 hPa | 0 mm | - | 0 W/m² | - |
| 1788404381 | 16.67° C | 35% | 1017.7 hPa | 0 mm | - | 0 W/m² | - |
| 1788404071 | 16.67° C | 35% | 1017.8 hPa | 0 mm | - | 0 W/m² | - |
| 1788403767 | 16.67° C | 35% | 1017.8 hPa | 0 mm | - | 0 W/m² | - |
| 1788403460 | 16.67° C | 35% | 1017.7 hPa | 0 mm | - | 0 W/m² | - |
| 1788403155 | 16.67° C | 35% | 1017.7 hPa | 0 mm | - | 0 W/m² | - |
| 1788402851 | 16.67° C | 36% | 1017.6 hPa | 0 mm | - | 0 W/m² | - |
| 1788402547 | 16.67° C | 35% | 1017.6 hPa | 0 mm | - | 2 W/m² | - |
| 1788402245 | 16.67° C | 35% | 1017.6 hPa | 0 mm | - | 4 W/m² | - |
| 1788401944 | 17.22° C | 35% | 1017.1 hPa | 0 mm | - | 6 W/m² | - |
| 1788401639 | 17.22° C | 35% | 1017.4 hPa | 0 mm | - | 10 W/m² | - |
| 1788401339 | 17.22° C | 33% | 1017.3 hPa | 0 mm | - | 12 W/m² | - |
| 1788401035 | 17.22° C | 32% | 1017.7 hPa | 0 mm | - | 16 W/m² | - |
| 1788400729 | 17.22° C | 34% | 1017.7 hPa | 0 mm | - | 18 W/m² | - |
| 1788400424 | 17.22° C | 33% | 1017.5 hPa | 0 mm | - | 19 W/m² | - |
| 1788400120 | 17.22° C | 34% | 1017.5 hPa | 0 mm | - | 21 W/m² | - |
| 1788399814 | 17.78° C | 33% | 1017.5 hPa | 0 mm | - | 22 W/m² | - |
| 1788399509 | 17.78° C | 32% | 1017.4 hPa | 0 mm | - | 23 W/m² | - |
| 1788399208 | 17.78° C | 33% | 1017.5 hPa | 0 mm | - | 24 W/m² | - |
* Rain latest hour (hover to see other rain measurements)
** Current wind speed in m/s (hover to see current wind gust speed)